| time (UTC) | temp F | wind direction | speed knots | gust knots | rain 1hr in | rain 24hr in | rain mn in | humidity % | barometer mb |
| 20260508203052 | 58 | 192 | 0.9 | 5.2 | 0.00 | 0.00 | 0.00 | 59 | 1022.1 |
| 20260508201557 | 58 | 0 | 0.9 | 6.1 | 0.00 | 0.00 | 0.00 | 59 | 1022.0 |
| 20260508200051 | 58 | 203 | 0.9 | 6.1 | 0.00 | 0.00 | 0.00 | 60 | 1021.9 |
| 20260508194605 | 58 | 74 | 1.7 | 7.0 | 0.00 | 0.00 | 0.00 | 60 | 1021.8 |
| 20260508193117 | 57 | 201 | 0.9 | 4.3 | 0.00 | 0.00 | 0.00 | 62 | 1021.8 |
| 20260508191604 | 56 | 215 | 0.9 | 6.1 | 0.00 | 0.00 | 0.00 | 65 | 1021.8 |
| 20260508190110 | 55 | 171 | 1.7 | 9.6 | 0.00 | 0.00 | 0.00 | 66 | 1021.7 |
| 20260508184555 | 55 | 0 | 0.9 | 5.2 | 0.00 | 0.00 | 0.00 | 67 | 1021.6 |
| 20260508183047 | 55 | 179 | 1.7 | 6.1 | 0.00 | 0.00 | 0.00 | 65 | 1021.6 |
| 20260508181555 | 55 | 210 | 0.9 | 3.5 | 0.00 | 0.00 | 0.00 | 68 | 1021.3 |
| 20260508180055 | 54 | 179 | 0.9 | 5.2 | 0.00 | 0.00 | 0.00 | 71 | 1021.4 |
| 20260508174553 | 54 | 0 | 0.9 | 3.5 | 0.00 | 0.00 | 0.00 | 73 | 1021.2 |
| 20260508173050 | 54 | 202 | 0.9 | 3.5 | 0.00 | 0.00 | 0.00 | 72 | 1020.9 |
| 20260508171548 | 54 | 179 | 0.0 | 1.7 | 0.00 | 0.00 | 0.00 | 74 | 1020.6 |
| 20260508170101 | 53 | 0 | 0.0 | 2.6 | 0.00 | 0.00 | 0.00 | 74 | 1020.5 |
| 20260508164552 | 53 | 0 | 0.0 | 1.7 | 0.00 | 0.00 | 0.00 | 74 | 1020.5 |
| 20260508163104 | 54 | 0 | 0.0 | 3.5 | 0.00 | 0.00 | 0.00 | 74 | 1020.3 |
| 20260508161556 | 54 | 0 | 0.0 | 1.7 | 0.00 | 0.00 | 0.00 | 72 | 1020.2 |
| 20260508160051 | 53 | 177 | 0.9 | 3.5 | 0.00 | 0.00 | 0.00 | 73 | 1020.3 |
| 20260508154553 | 52 | 184 | 0.9 | 6.1 | 0.00 | 0.00 | 0.00 | 75 | 1020.1 |
| 20260508153105 | 52 | 158 | 0.9 | 4.3 | 0.00 | 0.00 | 0.00 | 75 | 1020.6 |
| 20260508151557 | 52 | 177 | 0.9 | 4.3 | 0.00 | 0.00 | 0.00 | 77 | 1020.4 |
| 20260508150059 | 52 | 230 | 0.0 | 3.5 | 0.00 | 0.00 | 0.00 | 79 | 1020.3 |
| 20260508144548 | 51 | 201 | 0.9 | 3.5 | 0.00 | 0.00 | 0.00 | 80 | 1020.2 |
| 20260508143113 | 51 | 214 | 0.9 | 4.3 | 0.00 | 0.00 | 0.00 | 81 | 1019.9 |
| 20260508141558 | 51 | 224 | 0.0 | 3.5 | 0.00 | 0.00 | 0.00 | 82 | 1019.5 |
| 20260508140121 | 51 | 200 | 0.9 | 4.3 | 0.00 | 0.00 | 0.00 | 82 | 1019.2 |
| 20260508134552 | 51 | 0 | 0.9 | 1.7 | 0.00 | 0.00 | 0.00 | 82 | 1019.0 |
| 20260508133052 | 51 | 0 | 0.0 | 3.5 | 0.00 | 0.00 | 0.00 | 82 | 1018.7 |
| 20260508131552 | 51 | 197 | 0.0 | 2.6 | 0.00 | 0.00 | 0.00 | 82 | 1018.5 |
| 20260508130050 | 51 | 194 | 0.0 | 2.6 | 0.00 | 0.00 | 0.00 | 82 | 1018.0 |
| 20260508124551 | 51 | 226 | 0.0 | 2.6 | 0.00 | 0.00 | 0.00 | 83 | 1018.0 |
| 20260508123052 | 51 | 0 | 0.0 | 2.6 | 0.00 | 0.00 | 0.00 | 83 | 1017.8 |
| 20260508121552 | 51 | 0 | 0.0 | 2.6 | 0.00 | 0.00 | 0.00 | 84 | 1017.9 |
| 20260508120100 | 51 | 0 | 0.0 | 2.6 | 0.00 | 0.00 | 0.00 | 84 | 1017.7 |
| 20260508114601 | 51 | 198 | 0.0 | 1.7 | 0.00 | 0.00 | 0.00 | 84 | 1017.6 |
| 20260508113101 | 51 | 163 | 0.0 | 2.6 | 0.00 | 0.00 | 0.00 | 85 | 1017.5 |
| 20260508111553 | 50 | 0 | 0.0 | 0.9 | 0.00 | 0.00 | 0.00 | 87 | 1017.1 |
| 20260508104554 | 48 | 0 | 0.0 | 0.0 | 0.00 | 0.00 | 0.00 | 86 | 1017.1 |
| 20260508103057 | 48 | 0 | 0.0 | 0.0 | 0.00 | 0.00 | 0.00 | 87 | 1017.0 |
| 20260508101556 | 48 | 0 | 0.0 | 0.9 | 0.00 | 0.00 | 0.00 | 86 | 1016.9 |
| 20260508100104 | 48 | 0 | 0.0 | 0.0 | 0.00 | 0.00 | 0.00 | 86 | 1016.8 |
| 20260508094552 | 48 | 0 | 0.0 | 0.0 | 0.00 | 0.00 | 0.00 | 86 | 1016.8 |
| 20260508093051 | 48 | 0 | 0.0 | 0.0 | 0.00 | 0.00 | 0.00 | 87 | 1016.9 |
| 20260508091608 | 49 | 0 | 0.0 | 0.0 | 0.00 | 0.00 | 0.00 | 87 | 1016.9 |
| 20260508090051 | 49 | 0 | 0.0 | 0.0 | 0.00 | 0.00 | 0.00 | 87 | 1016.8 |
| 20260508084551 | 49 | 0 | 0.0 | 0.0 | 0.00 | 0.00 | 0.00 | 86 | 1016.8 |
| 20260508083052 | 49 | 0 | 0.0 | 0.0 | 0.00 | 0.00 | 0.00 | 86 | 1016.8 |
| 20260508081611 | 50 | 0 | 0.0 | 0.0 | 0.00 | 0.00 | 0.00 | 86 | 1016.8 |
| 20260508080053 | 50 | 0 | 0.0 | 0.0 | 0.00 | 0.00 | 0.00 | 86 | 1016.8 |
| 20260508074602 | 50 | 0 | 0.0 | 0.0 | 0.00 | 0.00 | 0.00 | 86 | 1016.8 |
| 20260508073053 | 51 | 0 | 0.0 | 0.9 | 0.00 | 0.00 | 0.00 | 86 | 1016.9 |
| 20260508071554 | 51 | 0 | 0.0 | 0.0 | 0.00 | 0.00 | 0.00 | 86 | 1016.8 |
| 20260508070055 | 51 | 0 | 0.0 | 0.0 | 0.00 | 0.00 | 0.00 | 86 | 1017.0 |
| 20260508064555 | 51 | 0 | 0.0 | 0.0 | 0.00 | 0.00 | 0.00 | 85 | 1017.1 |
| 20260508063058 | 51 | 0 | 0.0 | 0.0 | 0.00 | 0.00 | 0.00 | 85 | 1017.0 |
| 20260508061553 | 52 | 0 | 0.0 | 0.0 | 0.00 | 0.00 | 0.00 | 84 | 1017.1 |
| 20260508060111 | 52 | 0 | 0.0 | 0.0 | 0.00 | 0.00 | 0.00 | 84 | 1017.2 |
| 20260508054638 | 52 | 0 | 0.0 | 0.0 | 0.00 | 0.00 | 0.00 | 83 | 1017.2 |
| 20260508053056 | 52 | 0 | 0.0 | 0.0 | 0.00 | 0.00 | 0.00 | 81 | 1017.1 |
| 20260508051549 | 53 | 0 | 0.0 | 0.0 | 0.00 | 0.00 | 0.00 | 81 | 1017.0 |
| 20260508050057 | 53 | 0 | 0.0 | 0.0 | 0.00 | 0.00 | 0.00 | 80 | 1017.1 |
| 20260508044552 | 54 | 0 | 0.0 | 0.0 | 0.00 | 0.00 | 0.00 | 79 | 1017.2 |
| 20260508043059 | 54 | 0 | 0.0 | 0.0 | 0.00 | 0.00 | 0.00 | 78 | 1017.3 |
| 20260508041553 | 55 | 0 | 0.0 | 0.0 | 0.00 | 0.00 | 0.00 | 76 | 1017.5 |
| 20260508040052 | 56 | 0 | 0.0 | 0.0 | 0.00 | 0.00 | 0.00 | 75 | 1017.3 |
| 20260508034552 | 57 | 0 | 0.0 | 0.0 | 0.00 | 0.00 | 0.00 | 72 | 1017.2 |
| 20260508033052 | 58 | 0 | 0.0 | 0.0 | 0.00 | 0.00 | 0.00 | 69 | 1017.2 |
| 20260508031556 | 60 | 0 | 0.0 | 0.0 | 0.00 | 0.00 | 0.00 | 67 | 1017.2 |
| 20260508030051 | 61 | 0 | 0.0 | 0.0 | 0.00 | 0.00 | 0.00 | 64 | 1017.3 |
| 20260508024603 | 63 | 0 | 0.0 | 0.0 | 0.00 | 0.00 | 0.00 | 58 | 1017.4 |
| 20260508023055 | 66 | 0 | 0.0 | 0.0 | 0.00 | 0.00 | 0.00 | 52 | 1017.4 |
| 20260508021553 | 68 | 158 | 0.0 | 1.7 | 0.00 | 0.00 | 0.00 | 48 | 1017.5 |
| 20260508020104 | 70 | 159 | 0.0 | 0.9 | 0.00 | 0.00 | 0.00 | 46 | 1017.6 |
| 20260508014602 | 70 | 0 | 0.0 | 0.9 | 0.00 | 0.00 | 0.00 | 46 | 1017.7 |
| 20260508013056 | 72 | 0 | 0.0 | 0.9 | 0.00 | 0.00 | 0.00 | 43 | 1017.7 |
| 20260508011615 | 71 | 0 | 0.0 | 2.6 | 0.00 | 0.00 | 0.00 | 45 | 1018.0 |
| 20260508010101 | 71 | 0 | 0.0 | 1.7 | 0.00 | 0.00 | 0.00 | 46 | 1018.1 |
| 20260508004549 | 70 | 0 | 0.0 | 1.7 | 0.00 | 0.00 | 0.00 | 46 | 1018.2 |
| 20260508003054 | 70 | 127 | 0.0 | 1.7 | 0.00 | 0.00 | 0.00 | 45 | 1018.2 |
| 20260508001559 | 70 | 0 | 0.0 | 1.7 | 0.00 | 0.00 | 0.00 | 46 | 1018.2 |
| 20260508000057 | 70 | 164 | 0.0 | 4.3 | 0.00 | 0.00 | 0.00 | 48 | 1018.4 |
| 20260507234548 | 69 | 147 | 0.9 | 3.5 | 0.00 | 0.00 | 0.00 | 48 | 1018.4 |
| 20260507233052 | 69 | 40 | 0.0 | 1.7 | 0.00 | 0.00 | 0.00 | 49 | 1018.4 |
| 20260507231556 | 70 | 0 | 0.9 | 2.6 | 0.00 | 0.00 | 0.00 | 46 | 1018.5 |
| 20260507230050 | 70 | 41 | 0.9 | 3.5 | 0.00 | 0.00 | 0.00 | 48 | 1018.6 |
| 20260507224557 | 71 | 160 | 0.0 | 3.5 | 0.00 | 0.00 | 0.00 | 46 | 1018.8 |
| 20260507223052 | 71 | 0 | 0.0 | 4.3 | 0.00 | 0.00 | 0.00 | 46 | 1018.9 |
| 20260507221551 | 70 | 0 | 0.0 | 3.5 | 0.00 | 0.00 | 0.00 | 48 | 1018.8 |
| 20260507220054 | 69 | 39 | 0.0 | 7.0 | 0.00 | 0.00 | 0.00 | 49 | 1018.9 |
| 20260507214552 | 67 | 134 | 0.0 | 1.7 | 0.00 | 0.00 | 0.00 | 52 | 1019.2 |
| 20260507213054 | 65 | 0 | 0.0 | 2.6 | 0.00 | 0.00 | 0.00 | 55 | 1019.5 |
| 20260507211556 | 65 | 0 | 0.9 | 2.6 | 0.00 | 0.00 | 0.00 | 53 | 1019.7 |
| 20260507210100 | 67 | 186 | 0.0 | 3.5 | 0.00 | 0.00 | 0.00 | 54 | 1019.8 |
| 20260507204552 | 65 | 162 | 0.0 | 2.6 | 0.00 | 0.00 | 0.00 | 55 | 1019.9 |